Miscellaneous Local Product
Issued by NWS North Platte, NE

Home | Current Version | Previous Version | Text Only | Print | Product List | Glossary On
Versions: 1 2 3 4 5 6 7 8 9 10 11 12 13 14 15 16 17 18 19 20 21 22 23 24 25 26 27 28 29 30 31 32 33 34 35 36 37 38 39 40 41 42 43 44 45 46 47 48 49 50
000
AXUS43 KLBF 181510
MISLBF


WESTERN AND NORTH CENTRAL NEBRASKA HOURLY WEATHER ROUNDUP
NATIONAL WEATHER SERVICE NORTH PLATTE NE
900 AM CST THU DEC 18 2014

***STATIONS NOT REPORTING VARIABLES SUCH AS SKY/WEATHER OR
PRESSURE ARE PROVIDED BY THE NEBRASKA DEPARTMENT OF
ROADS...RAWS...AND APRS NETWORKS...AND ARE NOT UNDER
NATIONAL WEATHER SERVICE QUALITY CONTROL***

...OBSERVATIONS IN AND NEAR THE EASTERN PANHANDLE OF NEBRASKA...

CITY           SKY/WX    TMP DP  RH WIND       PRES   REMARKS
PINE RIDGE     PTCLDY     6   1  80 CALM      30.03R
CHADRON        PTCLDY     5   1  83 W5        30.05R WCI  -4
ALLIANCE       PTCLDY     3  -1  83 CALM      30.02R
SIDNEY         MOCLDY    16  12  84 W13       30.03R WCI   2
WHITECLAY        N/A      6   0  78 E5          N/A  WCI  -3
CRESCENT LAKE    N/A      9   6  85 CALM        N/A
LISCO            N/A     13   8  79 W6          N/A  WCI   4
BIG SPRINGS      N/A     21  20  96 W5          N/A  WCI  15
$$

...OBSERVATIONS IN NORTH CENTRAL NEBRASKA...

CITY           SKY/WX    TMP DP  RH WIND       PRES   REMARKS
VALENTINE      CLOUDY    26  22  84 SW3       30.07S
THEDFORD       CLOUDY    26  24  93 SW5       30.08S WCI  21
AINSWORTH      CLOUDY    24  23  96 CALM      30.08S
O`NEILL        CLOUDY    24  23  96 CALM      30.16R
ORD            CLOUDY    23  20  88 SE7       30.15R FOG     WCI  15
BROKEN BOW     CLOUDY    25  23  92 S9        30.12R FOG     WCI  15
BROWNLEE         N/A     24  22  93 CALM        N/A
SPRINGVIEW       N/A     25  22  87 CALM        N/A
BREWSTER         N/A     28  26  94 SW6         N/A  WCI  21
ROSE             N/A     28  28 100 MISG        N/A
SARGENT          N/A     24  23  94 CALM        N/A
COMSTOCK         N/A     29  28  94 S7          N/A  WCI  22
CHAMBERS         N/A     24  21  89 CALM        N/A
$$

...OBSERVATIONS IN SOUTHWEST NEBRASKA AND FAR NORTHEAST COLORADO...

CITY           SKY/WX    TMP DP  RH WIND       PRES   REMARKS
WRAY           CLOUDY    17  15  93 SW5       30.08R VSB 1/4 WCI   9
IMPERIAL       CLOUDY    25  23  92 CALM      30.09R FOG
OGALLALA       FOG       23  22  97 W6        30.08R VSB 3/4 WCI  16
NORTH PLATTE   CLOUDY    25  23  92 SW6       30.11R WCI  18
MCCOOK         CLOUDY    24  22  91 S3        30.13R FOG
LEXINGTON      CLOUDY    26  24  92 S3        30.14S
PAXTON           N/A     25  24  93 SW3         N/A
BRADY            N/A     24  22  91 CALM        N/A
GOTHENBURG       N/A     26  24  90 SW3         N/A
CALLAWAY         N/A     24  23  96 CALM        N/A
$$

...NORTH PLATTE AREA...

CITY           SKY/WX    TMP DP  RH WIND       PRES   REMARKS
AIRPORT        CLOUDY    25  23  92 SW6       30.11R WCI  18
DOWNTOWN         N/A     25  23  92 W3          N/A
$$

...SOME WEATHER OBSERVATIONS FROM AROUND THE REGION...

CITY           SKY/WX    TMP DP  RH WIND       PRES   REMARKS
DENVER         MOCLDY    26  24  92 CALM      30.02R FOG
LARAMIE        PTCLDY    11   7  84 W6        29.99R WCI   1
CHEYENNE       PTCLDY    29  15  56 W14       30.01R WCI  18
SCOTTSBLUFF    CLOUDY     6   3  87 NW6       30.05S FOG     WCI  -4
RAPID CITY     FOG       20  19  96 SE5       30.00S VSB<1/4 WCI  13
PIERRE         CLOUDY    22  20  92 SE6       30.10S WCI  14
WINNER         CLOUDY    25  21  85 SE10      30.11S WCI  15
SIOUX FALLS    CLOUDY    20  17  88 SE7       30.22S WCI  11
OMAHA          LGT SNOW  27  23  85 SE8       30.26S FOG     WCI  19
GRAND ISLAND   CLOUDY    24  21  88 SE3       30.20R
KANSAS CITY    LGT SNOW  28  27  96 E8        30.23R FOG     WCI  20
WICHITA        FOG       32  30  92 NE5       30.18R VSB 1/4 WCI  27
HAYS           CLOUDY    27  18  69 NE3       30.17S
LIBERAL        CLOUDY    32  28  86 N5        30.14R VSB 1/2 WCI  27
GOODLAND       FOG       21  20  96 SW7       30.08S VSB 1/2 WCI  12
$$



USA.gov is the U.S. government's official web portal to all federal, state and local government web resources and services.